Location: *
(45.8589°N, 4.7139°E)
Time: 03:36:59
(UTC+00:00)

STARLINK-1236 - Pass Details

Date: 09 April 2020
Orbit: 549 x 550 km, 53.0° (Epoch: 02 June)

Event Time Altitude Azimuth Distance (km) Brightness Sun altitude
Rises 19:34:36 0° 300° (WNW) 2,775 9.3 -13.0°
Reaches altitude 10° 19:36:55 10° 305° (NW) 1,878 7.8 -13.3°
Maximum altitude 19:41:05 50° 22° (NNE) 737 4.3 -14.0°
Enters shadow 19:43:41 21° 90° (E) 1,306 5.0 -14.4°
